Wetbulb
64.87 64.53 64.59 64.20 64.17 63.74 62.54 62.27 63.03 64.36 64.76 65.71 65.05 64.19 64.01 63.79 63.61 62.58 59.17 58.55 57.82 57.30 56.94 55.68 55.22 54.81 53.56 54.73 54.85 54.10 53.24 53.13 51.76 52.45 52.89 54.60 54.74 54.09 54.52 55.53 55.94 56.59 55.65
63.35 63.43 63.24 64.24 63.52 62.94 61.87 62.23 65.29 64.10 64.52 63.49 63.02 61.24 59.96 59.68 59.22 58.53 57.26 56.53 55.54 54.85 55.04 54.75 53.62 54.03 54.11 54.11 53.74 53.56 53.21 52.80 52.09 51.05 51.93 52.65 52.48 52.52 52.88 53.66 53.64 54.81 54.47
62.97 62.82 62.83 63.31 62.92 62.90 62.86 63.10 62.75 62.49 62.14 61.07 60.27 59.02 57.30 57.00 56.40 56.31 55.88 55.24 55.04 54.90 55.07 55.15 54.86 55.01 54.33 53.46 52.99 52.42 52.98 53.48 52.78 51.91 51.17 50.18 50.98 51.65 52.12 52.75 52.65 53.30 53.65
62.72 62.19 61.45 60.95 60.89 61.14 61.29 61.17 59.92 57.51 55.41 54.71 54.92 55.05 55.03 54.88 54.51 53.92 53.32 53.09 52.90 52.99 53.38 53.85 53.65 53.81 53.67 53.54 52.99 52.72 52.37 51.44 50.07 48.75 48.51 49.27 50.17 51.10 50.43 49.43 49.85 51.38 51.43
60.58 60.07 59.60 60.16 59.88 59.35 58.61 57.98 56.11 55.24 54.00 53.75 53.34 52.99 52.78 52.46 52.08 51.90 52.55 52.32 51.84 51.49 51.78 51.90 53.89 55.82 55.81 55.49 52.49 51.61 50.85 49.67 49.10 48.74 47.06 46.71 47.24 47.76 47.99 49.38 48.22 49.40 50.45
59.58 58.97 59.08 58.39 58.26 57.56 56.73 56.27 53.99 53.31 53.16 52.94 51.40 50.74 50.60 49.54 48.47 49.34 48.94 48.55 49.35 49.69 49.58 50.39 51.59 51.99 51.67 52.38 52.80 52.74 52.15 50.00 47.66 47.09 48.15 46.63 48.22 47.62 48.22 47.49 47.41 46.91 45.92
57.94 57.88 58.29 58.30 57.83 58.14 57.25 55.10 53.05 51.28 50.51 49.38 48.79 48.61 46.97 47.30 45.76 46.25 46.73 46.50 47.03 48.11 48.55 48.99 49.47 49.14 48.17 47.40 46.93 47.39 47.14 47.13 48.21 48.95 47.60 47.31 47.70 48.76 47.96 47.04 47.18 46.70 47.30
55.95 57.03 57.27 57.35 57.63 57.17 56.11 53.87 51.43 50.45 49.20 47.80 47.32 47.23 46.85 46.50 45.14 44.66 45.17 45.99 45.88 46.00 46.42 46.91 47.58 48.06 47.32 46.98 46.31 46.45 46.66 47.06 47.71 47.93 47.93 47.58 48.14 48.41 47.65 47.29 47.34 48.02 48.56
55.01 55.98 56.47 56.24 54.63 54.28 52.99 51.94 51.59 50.88 48.53 46.87 46.43 46.25 46.06 45.83 44.36 43.78 45.72 46.32 45.34 45.25 45.74 47.26 46.65 47.32 44.92 44.02 46.23 45.41 46.21 46.96 47.53 47.10 46.49 45.75 44.99 45.27 46.26 48.70 48.29 46.67 46.89
55.86 55.90 55.41 54.95 54.29 53.58 53.30 52.42 52.10 50.53 48.01 46.80 46.23 46.41 46.03 46.20 43.55 43.03 44.47 45.42 44.74 44.65 45.76 45.87 45.11 44.90 43.18 42.89 45.95 44.85 43.91 44.55 44.80 45.89 46.20 46.59 46.67 47.37 46.41 48.15 47.52 44.91 46.04
56.26 55.19 54.37 53.60 53.29 52.54 51.54 51.35 50.82 48.64 46.80 46.29 45.87 45.38 45.07 44.97 45.31 42.78 42.56 45.44 44.39 44.20 44.33 44.60 45.41 42.80 42.00 42.17 42.58 45.69 43.84 44.78 44.38 44.50 44.98 45.80 47.26 47.59 48.06 48.46 48.40 46.77 45.65
56.77 55.58 53.75 53.21 52.73 51.61 51.07 50.24 49.02 47.54 46.40 46.06 45.03 43.75 43.52 43.76 43.00 42.13 41.71 42.34 43.86 44.43 44.27 44.40 44.63 41.08 40.72 41.34 43.93 41.96 42.18 43.41 43.83 43.58 44.05 44.54 44.86 45.47 46.62 47.84 48.75 48.14 47.67
54.32 53.31 52.34 51.86 50.71 49.95 49.10 48.45 46.85 46.47 46.25 46.01 42.66 42.06 42.41 42.60 43.10 41.29 40.94 40.91 42.19 43.52 44.79 44.27 41.74 40.64 40.90 42.73 42.42 42.50 42.72 43.45 42.66 41.77 41.88 42.68 44.31 45.45 46.78 47.57 48.50 48.45 48.04
53.31 52.03 51.55 50.30 48.93 48.09 48.03 48.01 47.70 46.90 45.64 43.55 42.23 41.38 41.36 42.29 42.97 43.64 44.15 45.22 43.13 44.31 43.77 44.81 43.16 42.05 41.30 42.13 43.24 44.47 44.03 43.27 42.28 41.21 41.34 42.94 45.02 45.91 45.90 46.95 45.78 46.41 45.74
52.94 52.05 50.20 48.69 46.55 44.84 43.04 44.30 46.79 46.31 45.78 45.47 44.79 43.13 42.39 42.97 43.54 41.03 41.36 44.81 44.24 42.29 43.30 44.48 43.98 43.30 43.03 42.64 43.05 43.47 43.10 43.20 41.37 42.10 41.80 43.22 44.44 45.32 45.34 46.52 46.07 45.50 44.18
51.84 50.74 48.46 48.14 46.70 44.42 44.37 44.20 40.96 40.52 39.71 40.22 41.10 43.23 44.14 40.66 39.56 39.46 39.58 39.21 38.55 38.74 42.89 43.00 42.37 42.01 41.69 41.23 41.36 41.41 42.12 41.39 41.03 41.19 42.74 43.33 43.89 44.48 45.02 45.40 45.63 44.75 44.15
49.67 50.11 48.49 47.43 46.32 44.77 43.64 43.82 43.83 43.42 40.53 39.49 38.96 39.31 39.20 39.39 39.53 39.14 39.60 39.53 38.59 40.42 42.00 41.62 41.67 41.55 41.08 41.16 40.80 40.45 40.14 39.81 40.51 41.47 42.01 43.11 43.79 44.97 44.77 44.36 44.68 45.43 44.27
49.91 46.51 49.86 48.71 48.88 46.14 45.14 43.86 43.90 45.95 45.61 45.58 42.40 41.42 39.74 39.19 39.00 39.81 40.84 41.84 43.86 43.35 43.26 42.52 41.72 41.16 40.90 40.40 39.94 39.77 40.45 40.01 40.08 40.70 41.63 42.38 43.10 44.37 44.65 43.80 44.25 43.79 43.81
47.59 48.53 49.61 49.59 48.58 47.46 48.42 47.07 46.43 45.17 44.16 43.57 44.50 43.57 42.34 39.60 39.31 39.79 40.78 44.63 43.47 42.74 42.89 42.46 42.34 41.03 40.19 39.62 39.70 40.02 40.26 39.82 38.88 39.55 40.97 41.09 41.89 43.29 44.97 44.86 44.07 40.94 41.17
46.99 43.63 44.97 48.84 48.74 48.32 47.27 45.43 43.87 43.51 43.31 43.33 42.99 42.49 43.41 42.79 42.39 42.37 42.58 42.80 42.62 42.21 42.09 42.04 41.87 41.24 40.23 39.12 38.97 39.45 40.61 40.70 39.77 39.76 40.15 40.36 41.47 42.51 45.36 45.94 45.20 43.93 44.19
49.47 49.28 45.45 49.32 48.40 47.59 46.54 44.88 43.80 43.36 42.82 42.20 41.70 39.14 31.55 41.60 40.99 40.85 40.98 41.00 41.18 41.51 41.91 41.98 41.89 40.65 39.85 39.22 39.04 39.32 40.11 40.40 39.69 39.26 38.65 38.91 40.95 42.90 45.58 47.13 46.36 45.59 44.04
49.10 49.21 48.32 47.51 46.66 45.12 43.50 42.95 42.76 42.44 42.20 41.49 40.78 39.67 33.47 40.33 40.25 40.05 40.39 40.85 41.07 41.37 41.49 41.16 40.67 39.99 38.99 38.53 38.30 38.57 38.85 38.74 37.64 36.95 37.02 37.99 39.41 42.32 44.04 47.29 46.86 45.42 44.98
47.42 46.18 45.39 45.17 44.33 41.33 42.75 42.27 42.01 41.53 40.83 40.27 39.99 39.66 39.52 39.47 39.81 40.08 40.07 40.85 41.35 41.25 41.36 40.16 39.63 38.94 39.08 38.74 37.95 37.12 36.15 35.08 34.19 34.70 36.31 37.69 38.87 41.56 42.31 45.53 47.36 46.18 45.26
47.04 46.29 45.21 44.35 43.76 43.32 42.80 42.14 41.61 38.13 40.01 39.74 39.89 39.41 39.72 40.07 40.58 41.42 41.28 41.84 41.89 41.87 41.33 40.21 38.76 38.01 38.16 37.61 36.81 36.66 36.03 34.31 34.21 34.82 36.50 37.79 38.34 41.04 44.74 45.42 46.12 45.76 45.73
47.13 46.18 45.50 44.53 43.76 42.97 42.15 41.97 41.10 40.55 40.10 39.88 39.54 39.60 40.19 40.46 40.37 40.70 41.22 41.72 41.95 42.00 40.12 39.31 38.32 37.44 36.95 36.32 35.66 34.73 33.58 31.83 33.81 32.47 38.05 40.53 42.11 43.89 46.60 46.31 47.36 45.74 45.30
46.80 46.03 45.44 44.11 43.15 42.54 42.24 41.72 41.15 40.53 40.43 40.23 40.05 40.15 40.29 40.34 40.42 40.46 40.65 40.68 40.70 40.60 39.56 38.82 38.10 36.90 36.21 35.87 34.19 32.04 31.72 31.78 32.93 31.96 35.31 43.36 45.37 45.69 46.05 46.16 48.60 47.47 46.81
MSLP
1010.99 1011.45 1011.79 1012.00 1012.05 1012.18 1012.18 1012.24 1012.38 1012.60 1012.00 1012.43 1012.51 1012.77 1013.05 1013.12 1013.66 1014.23 1014.43 1014.70 1014.99 1015.44 1015.89 1015.78 1015.96 1016.47 1016.86 1016.88 1016.96 1016.94 1016.99 1017.26 1017.45 1017.30 1017.43 1017.13 1016.90 1016.95 1016.91 1016.76 1016.52 1016.38 1016.10
1012.01 1012.06 1012.10 1012.16 1012.34 1012.44 1012.65 1013.05 1012.69 1012.27 1012.73 1013.08 1013.41 1013.84 1014.16 1014.40 1014.47 1014.86 1015.23 1015.72 1015.98 1015.73 1016.22 1016.32 1016.48 1016.83 1016.96 1017.24 1017.35 1016.79 1017.07 1017.55 1017.55 1017.65 1017.44 1017.16 1017.18 1017.27 1017.10 1016.92 1016.71 1016.44 1016.06
1012.80 1012.71 1012.78 1012.77 1012.96 1012.99 1013.09 1013.05 1013.00 1013.31 1013.88 1014.17 1014.52 1014.83 1015.07 1015.24 1015.52 1015.71 1016.09 1016.57 1016.63 1016.89 1017.13 1017.14 1017.01 1016.91 1017.07 1017.19 1017.54 1017.22 1017.30 1017.55 1017.64 1017.73 1017.61 1017.77 1017.58 1017.32 1017.15 1017.07 1016.86 1016.40 1015.98
1013.48 1013.47 1013.47 1013.58 1013.66 1013.60 1013.47 1013.65 1014.02 1014.55 1014.81 1015.23 1015.60 1015.75 1015.98 1016.18 1016.51 1016.79 1017.25 1017.33 1017.40 1017.39 1017.37 1017.54 1017.44 1017.39 1017.47 1017.49 1017.43 1017.36 1017.48 1017.80 1017.90 1018.03 1017.87 1017.70 1017.77 1017.61 1017.52 1017.30 1016.82 1016.55 1016.02
1014.09 1014.11 1014.23 1014.23 1014.29 1014.20 1014.44 1014.74 1015.01 1015.39 1015.76 1016.12 1016.43 1016.88 1017.15 1017.28 1017.41 1017.65 1017.92 1018.10 1018.24 1018.08 1017.92 1017.95 1017.67 1017.48 1017.59 1017.68 1017.68 1017.95 1018.10 1018.27 1018.20 1018.50 1018.37 1018.15 1017.55 1017.36 1017.32 1017.07 1016.82 1016.46 1015.81
1014.80 1014.86 1014.81 1014.79 1014.97 1015.26 1015.45 1015.82 1016.14 1016.67 1017.03 1017.46 1017.95 1018.15 1018.30 1018.64 1018.69 1018.67 1018.74 1018.83 1018.81 1018.77 1018.75 1018.47 1018.26 1018.16 1018.29 1018.26 1018.15 1018.33 1018.53 1018.44 1018.35 1018.44 1017.91 1018.06 1017.52 1017.26 1017.20 1016.94 1016.63 1016.24 1015.67
1015.40 1015.57 1015.40 1015.49 1015.63 1015.87 1016.19 1016.52 1017.16 1017.80 1018.25 1018.60 1018.94 1019.18 1019.44 1019.65 1019.34 1019.13 1019.09 1019.24 1019.30 1019.41 1019.24 1019.21 1018.96 1018.93 1018.79 1018.63 1018.77 1018.91 1018.85 1018.65 1018.52 1018.53 1018.30 1017.94 1017.51 1016.96 1017.15 1016.77 1016.54 1016.24 1015.62
1016.12 1016.21 1016.20 1016.49 1016.64 1016.83 1017.02 1017.51 1018.14 1018.63 1019.07 1019.43 1019.66 1019.74 1019.83 1020.11 1019.79 1019.70 1019.77 1019.85 1020.00 1020.09 1020.02 1019.84 1019.69 1019.61 1019.64 1019.56 1019.38 1019.17 1019.06 1018.80 1018.73 1018.48 1018.26 1017.88 1017.54 1016.97 1016.95 1016.71 1016.36 1015.92 1015.41
1017.04 1017.21 1017.04 1017.03 1017.53 1017.79 1018.15 1018.60 1018.95 1019.10 1019.72 1020.13 1020.32 1020.48 1020.74 1020.89 1020.64 1020.50 1020.42 1020.47 1020.54 1020.61 1020.52 1020.40 1020.20 1020.07 1020.00 1019.77 1019.71 1019.61 1019.28 1018.88 1018.55 1018.23 1017.86 1017.67 1017.28 1016.92 1016.82 1016.32 1015.80 1015.54 1014.85
1017.47 1017.52 1017.69 1017.74 1018.23 1018.57 1018.93 1019.29 1019.67 1019.72 1020.30 1020.68 1021.05 1021.05 1021.15 1021.22 1021.19 1021.18 1021.24 1021.20 1021.25 1021.21 1020.92 1020.72 1020.66 1020.68 1020.49 1020.33 1020.17 1020.13 1019.56 1019.17 1018.65 1017.90 1017.56 1017.12 1016.82 1016.44 1016.19 1015.97 1015.62 1015.37 1014.91
1018.28 1018.31 1018.51 1018.64 1018.98 1019.24 1019.49 1019.90 1020.34 1020.66 1020.77 1021.38 1021.47 1021.64 1021.81 1021.92 1022.08 1021.83 1021.68 1021.59 1021.62 1021.46 1021.32 1021.24 1021.15 1020.99 1020.85 1020.64 1020.42 1020.14 1019.87 1019.38 1018.74 1018.20 1017.65 1017.04 1016.52 1016.04 1015.57 1015.20 1015.03 1014.98 1014.56
1018.70 1018.98 1019.15 1019.40 1019.54 1019.96 1020.16 1020.64 1020.93 1021.17 1021.34 1021.78 1022.09 1022.44 1022.57 1022.50 1022.48 1022.26 1021.98 1021.74 1021.68 1021.59 1021.50 1021.42 1021.25 1021.12 1020.76 1020.53 1020.39 1020.05 1019.62 1019.16 1018.74 1018.20 1017.69 1017.03 1016.48 1015.86 1015.29 1014.78 1014.35 1014.11 1013.92
1019.31 1019.51 1019.71 1020.08 1020.24 1020.46 1020.77 1021.32 1021.51 1021.79 1021.93 1022.24 1022.47 1022.57 1022.72 1022.75 1022.44 1022.23 1021.94 1021.73 1021.55 1021.50 1021.39 1021.29 1021.16 1020.86 1020.73 1020.54 1020.29 1020.01 1019.70 1019.33 1018.87 1018.34 1017.87 1017.20 1016.57 1015.81 1015.05 1014.37 1013.72 1013.22 1012.77
1019.32 1019.68 1019.96 1020.17 1020.70 1021.02 1021.14 1021.62 1021.78 1022.03 1022.23 1022.46 1022.66 1022.86 1022.84 1022.59 1022.45 1022.17 1021.99 1021.71 1021.31 1021.19 1021.23 1021.20 1021.11 1021.06 1020.94 1020.83 1020.53 1020.27 1019.86 1019.43 1019.05 1018.65 1017.96 1017.24 1016.39 1015.52 1014.74 1013.98 1013.25 1012.62 1012.12
1019.62 1020.05 1020.24 1020.57 1020.91 1021.35 1021.74 1022.15 1022.24 1022.37 1022.47 1022.56 1022.51 1022.62 1022.51 1022.46 1022.35 1022.29 1021.82 1021.38 1021.41 1021.39 1021.21 1021.21 1021.19 1021.08 1021.04 1021.00 1020.79 1020.37 1019.83 1019.36 1018.95 1018.48 1017.92 1017.12 1016.19 1015.34 1014.51 1013.75 1012.97 1012.30 1011.78
1020.05 1020.24 1020.39 1020.69 1021.04 1021.50 1021.77 1022.36 1022.60 1022.34 1022.50 1022.50 1022.23 1022.32 1022.32 1022.27 1022.08 1021.81 1021.67 1021.46 1021.22 1021.14 1021.31 1021.43 1021.51 1021.44 1021.45 1021.35 1020.99 1020.44 1019.99 1019.62 1019.16 1018.61 1017.90 1017.29 1016.43 1015.48 1014.61 1013.77 1013.05 1012.43 1011.67
1020.03 1020.31 1020.48 1020.85 1021.04 1021.39 1021.82 1022.24 1022.48 1022.65 1022.51 1022.33 1022.27 1022.29 1022.49 1022.24 1021.98 1022.05 1021.96 1021.80 1021.54 1021.48 1021.74 1021.93 1021.95 1021.82 1021.79 1021.61 1021.24 1020.82 1020.37 1019.93 1019.38 1018.81 1018.24 1017.55 1016.74 1015.82 1014.92 1014.13 1013.41 1012.68 1011.86
1020.19 1020.44 1020.59 1020.88 1021.13 1021.57 1021.94 1022.17 1022.38 1022.57 1022.65 1022.75 1022.69 1022.68 1022.51 1022.27 1022.19 1022.05 1021.98 1021.99 1022.05 1022.03 1022.12 1022.24 1022.23 1022.14 1022.09 1021.84 1021.42 1020.96 1020.47 1020.04 1019.49 1019.01 1018.47 1017.85 1017.06 1016.17 1015.32 1014.57 1013.92 1013.35 1012.49
1020.63 1020.85 1021.01 1021.27 1021.51 1021.69 1021.93 1022.27 1022.55 1022.79 1022.93 1022.98 1022.90 1022.91 1022.87 1022.75 1022.65 1022.42 1022.21 1022.42 1022.47 1022.53 1022.49 1022.46 1022.43 1022.46 1022.46 1022.22 1021.66 1021.11 1020.78 1020.34 1019.91 1019.35 1018.78 1018.15 1017.36 1016.52 1015.70 1015.05 1014.43 1013.96 1013.38
1021.06 1021.26 1021.38 1021.50 1021.75 1022.07 1022.36 1022.61 1022.85 1023.06 1023.21 1023.49 1023.63 1023.74 1023.65 1023.46 1023.44 1023.45 1023.32 1023.20 1023.10 1023.03 1022.84 1022.76 1022.74 1022.74 1022.62 1022.37 1021.94 1021.41 1020.86 1020.42 1020.00 1019.51 1019.05 1018.44 1017.74 1016.88 1015.98 1015.36 1014.82 1014.33 1013.96
1021.30 1021.44 1021.60 1021.80 1022.10 1022.34 1022.74 1023.01 1023.26 1023.52 1023.84 1024.10 1024.30 1024.40 1024.22 1024.07 1024.13 1024.05 1023.88 1023.74 1023.59 1023.37 1023.23 1023.13 1023.01 1022.90 1022.75 1022.50 1022.15 1021.66 1021.14 1020.69 1020.33 1019.95 1019.43 1018.72 1018.06 1017.19 1016.33 1015.60 1015.17 1014.82 1014.46
1021.58 1021.89 1022.12 1022.39 1022.76 1022.96 1023.28 1023.58 1023.77 1023.97 1024.23 1024.44 1024.61 1024.67 1024.59 1024.55 1024.47 1024.34 1024.18 1024.00 1023.81 1023.67 1023.58 1023.44 1023.23 1023.07 1022.98 1022.76 1022.44 1021.97 1021.45 1021.05 1020.78 1020.33 1019.71 1018.97 1018.24 1017.36 1016.62 1015.84 1015.46 1015.19 1014.87
1021.86 1022.30 1022.62 1022.94 1023.18 1023.58 1023.77 1023.98 1024.20 1024.41 1024.62 1024.77 1024.86 1024.93 1025.01 1024.96 1024.78 1024.53 1024.32 1024.12 1023.96 1023.78 1023.67 1023.63 1023.43 1023.22 1023.11 1022.92 1022.67 1022.31 1021.98 1021.71 1021.33 1020.79 1019.95 1019.15 1018.32 1017.48 1016.85 1016.13 1015.70 1015.51 1015.38
1021.95 1022.49 1022.89 1023.31 1023.57 1023.85 1024.13 1024.38 1024.66 1024.90 1024.97 1025.02 1025.10 1025.21 1025.21 1025.12 1024.89 1024.64 1024.47 1024.24 1024.08 1024.01 1023.96 1023.92 1023.83 1023.62 1023.30 1023.06 1022.86 1022.54 1022.22 1021.96 1021.41 1020.64 1019.95 1019.13 1018.31 1017.49 1016.68 1016.20 1015.80 1015.76 1015.70
1022.12 1022.71 1023.10 1023.39 1023.72 1024.10 1024.50 1024.61 1024.81 1025.06 1025.13 1025.08 1025.12 1025.20 1025.26 1025.19 1025.02 1024.86 1024.71 1024.54 1024.38 1024.24 1024.34 1024.24 1024.04 1023.78 1023.47 1023.21 1022.96 1022.64 1022.19 1021.69 1021.07 1020.47 1019.51 1018.75 1018.05 1017.32 1016.64 1016.20 1015.92 1015.77 1015.67
1022.41 1022.79 1023.24 1023.61 1023.92 1024.17 1024.42 1024.58 1024.82 1025.02 1024.98 1024.97 1025.08 1025.22 1025.26 1025.21 1025.15 1025.02 1024.90 1024.78 1024.66 1024.57 1024.49 1024.35 1024.16 1023.91 1023.60 1023.28 1023.07 1022.71 1022.03 1021.37 1020.69 1020.06 1019.42 1018.44 1017.83 1017.26 1016.77 1016.29 1015.75 1015.86 1015.76
Wind_Speed
8 8 7 6 4 3 3 2 1 2 2 1 5 6 5 7 6 7 7 6 7 6 3 6 5 4 3 2 2 2 2 2 2 1 2 1 3 4 5 5 5 5 5
9 8 8 5 5 4 1 3 3 10 11 11 9 10 8 7 7 7 6 5 4 7 3 4 5 3 3 1 1 3 1 1 2 3 1 2 1 1 3 3 4 5 4
7 8 7 7 6 6 8 11 13 13 11 10 9 8 8 8 9 9 8 7 7 6 5 5 4 4 3 2 2 1 0 0 1 1 2 1 2 2 3 3 4 5 5
8 9 10 9 9 9 11 12 12 10 11 10 9 10 10 9 10 9 7 7 7 7 7 6 5 4 3 3 3 4 3 2 1 1 2 2 2 1 2 4 6 3 7
8 9 8 8 9 11 11 10 11 10 11 10 11 10 9 9 7 8 8 8 6 6 7 7 8 12 15 8 4 4 3 2 1 1 2 2 2 2 3 1 3 6 8
8 8 9 10 10 8 9 9 10 11 12 11 10 10 11 8 11 13 9 7 8 8 7 7 7 11 11 12 11 10 6 3 2 2 2 3 6 4 2 4 5 5 6
9 8 8 7 8 8 8 10 11 10 10 10 9 9 10 7 11 11 12 7 8 8 9 8 7 7 10 9 11 10 10 9 6 5 6 6 6 4 5 8 7 5 6
7 6 6 6 7 8 10 10 10 8 8 8 8 8 8 7 11 12 12 7 8 8 9 8 6 6 7 7 6 8 8 6 7 5 4 8 7 9 7 8 10 8 7
5 5 5 7 7 8 9 8 7 9 8 8 6 7 7 5 8 10 8 7 8 8 7 8 7 7 6 6 7 7 8 8 7 7 9 11 11 11 9 5 5 5 6
4 5 6 7 7 7 7 7 5 8 8 6 7 5 7 6 9 8 6 4 6 4 5 7 10 8 9 8 7 6 8 9 10 12 10 8 7 7 7 3 4 6 7
5 7 8 7 6 6 6 6 7 7 8 6 7 6 6 5 5 7 5 3 2 3 3 4 4 8 6 6 4 5 6 8 11 8 7 7 7 8 6 5 5 5 7
7 6 5 5 6 5 8 6 6 7 7 5 5 4 3 3 4 5 5 3 2 1 1 1 2 3 7 6 4 7 11 10 7 7 7 7 8 8 8 9 9 8 7
6 4 6 6 6 5 7 5 5 4 4 4 4 3 1 2 2 5 7 6 3 2 1 2 2 7 8 6 9 9 9 8 7 6 7 6 7 8 9 8 9 9 9
6 5 4 6 6 4 4 3 4 4 3 4 3 2 1 1 2 3 3 1 2 3 2 2 4 4 4 4 6 7 7 7 5 5 6 8 7 7 8 8 8 7 7
3 3 5 5 5 5 5 2 2 1 1 3 2 3 1 1 2 5 4 4 3 2 2 2 3 4 6 6 6 7 8 8 6 6 6 8 8 8 7 8 7 7 6
4 3 4 4 3 4 4 3 5 5 3 4 4 3 1 5 7 8 9 3 2 4 3 2 3 4 5 5 6 7 7 9 7 7 7 7 8 9 8 8 7 6 6
4 5 4 4 3 4 2 2 3 1 6 8 6 5 3 4 6 7 7 5 7 3 3 4 3 4 4 5 6 6 7 7 7 6 7 8 8 8 9 8 8 8 8
5 7 4 3 3 3 2 2 2 2 2 2 4 7 10 9 8 7 3 4 4 5 4 3 4 4 4 5 6 6 7 6 6 6 6 7 7 8 8 8 8 9 8
4 3 3 3 3 3 3 3 4 4 4 4 4 6 8 10 10 11 10 5 5 4 4 4 4 4 5 7 7 6 6 7 7 6 6 6 7 7 7 8 7 9 9
5 7 5 3 4 4 4 5 4 4 5 4 4 4 3 5 6 6 6 5 4 4 4 4 4 4 5 6 7 7 7 7 7 7 7 6 7 7 6 9 8 8 7
3 3 6 5 5 6 5 5 4 4 4 4 4 4 4 5 4 5 5 5 4 5 5 4 4 5 6 6 6 7 7 7 7 8 7 7 7 8 7 7 7 7 6
4 4 5 5 5 5 5 4 4 4 4 3 3 4 6 4 4 4 4 4 4 3 3 3 4 5 5 6 6 7 7 8 8 7 7 7 7 7 6 7 6 7 7
5 5 5 4 5 5 4 4 4 4 3 3 3 3 3 3 3 3 3 3 3 3 3 4 5 5 5 5 5 5 6 7 7 7 8 8 7 7 5 5 6 5 6
6 6 5 5 4 4 4 3 3 3 3 3 2 2 2 3 3 5 5 4 4 4 4 5 5 6 6 6 5 6 5 7 7 7 9 7 8 8 6 3 4 4 4
6 6 5 4 5 4 4 4 3 3 2 2 2 2 2 2 3 4 4 4 4 4 4 5 5 7 8 9 9 11 11 9 9 8 6 7 8 9 7 3 2 2 3
5 5 4 4 4 5 4 4 4 3 3 2 1 1 1 2 2 2 3 3 3 3 4 4 6 9 10 7 10 12 12 12 11 10 7 7 8 7 6 6 4 1 3
Wind_Direction
86 93 66 56 75 106 200 224 316 240 37 201 74 68 75 80 82 74 77 75 90 98 101 124 139 148 162 132 142 144 120 141 210 284 253 316 338 352 339 339 340 342 340
32 31 24 39 89 130 109 247 213 68 63 65 56 53 53 52 60 65 80 75 80 93 92 91 99 101 119 80 15 57 19 227 200 249 293 336 292 309 300 303 321 308 317
44 52 38 55 70 83 81 73 70 78 68 54 68 58 52 54 59 61 60 61 62 54 50 50 46 44 37 28 5 4 349 265 210 252 322 338 305 342 330 313 306 307 303
53 52 54 59 69 71 72 74 70 69 73 63 53 57 57 59 59 59 63 62 51 46 38 34 30 15 345 339 10 23 43 46 24 308 258 270 266 307 308 296 310 307 307
71 72 75 74 65 70 66 66 69 70 71 69 68 56 59 61 57 59 55 56 50 48 39 26 26 35 43 50 46 38 49 43 45 272 268 254 269 270 278 258 281 300 294
73 85 76 78 76 68 72 70 70 59 62 67 64 66 60 62 61 64 66 60 52 49 37 30 38 42 42 44 46 49 49 23 350 289 293 269 285 280 283 307 301 309 307
86 85 79 68 76 77 82 79 74 73 78 72 69 76 70 65 64 65 65 60 56 46 39 29 33 32 32 27 22 31 23 11 6 311 295 303 303 311 314 304 293 283 271
74 79 74 67 68 72 82 84 85 86 86 88 84 79 75 50 55 56 60 61 59 50 43 30 28 24 22 18 26 23 12 7 360 345 311 297 287 295 280 276 281 287 274
68 67 85 90 84 91 92 95 93 97 85 78 79 79 77 53 61 64 70 59 51 41 38 37 45 44 11 22 37 17 1 350 337 315 312 304 300 289 269 283 280 287 290
72 80 78 83 85 85 92 93 86 95 94 89 76 64 76 60 43 56 77 77 62 41 33 29 22 27 27 37 47 27 9 340 330 330 332 325 321 316 310 286 300 288 292
59 65 68 76 88 91 86 91 94 95 94 84 79 53 59 53 39 47 68 86 92 65 45 28 18 5 28 47 59 25 358 324 334 334 327 324 320 316 308 301 280 257 267
80 84 75 75 101 97 99 94 102 112 103 92 94 85 52 32 25 23 33 43 168 112 73 15 355 15 31 22 17 350 356 350 345 340 332 323 320 318 316 311 298 277 249
66 74 96 89 86 89 110 114 106 111 119 118 117 109 74 313 323 350 341 325 297 199 183 304 324 39 19 16 1 353 350 350 339 333 324 312 306 300 297 298 290 277 262
117 125 121 99 96 81 80 96 118 127 120 128 129 142 217 316 339 337 324 294 85 73 12 339 40 46 47 9 359 346 345 346 330 315 312 310 301 307 306 303 295 299 279
131 131 106 104 101 92 79 71 113 124 156 162 184 182 137 25 282 267 308 357 349 360 334 28 27 23 13 1 352 345 348 353 340 330 315 315 316 316 315 319 313 311 295
142 135 128 115 113 100 98 96 56 65 101 183 160 175 215 250 287 3 349 345 95 143 63 50 43 29 12 350 349 343 346 348 339 328 326 322 324 327 330 331 332 332 321
131 136 118 109 109 122 120 126 130 52 65 61 60 81 28 316 349 328 354 41 47 74 61 57 36 26 5 352 345 344 338 333 316 328 328 326 325 332 343 343 345 343 343
100 121 124 140 124 101 99 96 80 46 48 8 40 47 28 43 37 34 61 40 37 39 63 49 31 30 7 347 347 348 344 340 339 334 332 329 328 330 348 351 351 350 347
87 94 103 105 92 96 98 83 88 85 74 51 31 35 16 18 29 37 38 67 70 63 49 46 47 31 0 341 345 350 341 342 332 331 331 329 327 328 344 352 349 353 354
76 93 95 95 96 92 92 93 88 75 60 49 39 22 9 37 40 35 40 45 47 43 42 31 31 17 359 347 342 344 342 347 348 343 337 328 325 322 332 359 1 356 3
105 82 87 80 88 96 92 81 71 69 73 63 48 29 6 56 43 34 30 31 24 23 26 28 19 9 357 347 344 343 342 343 347 344 336 328 329 335 334 346 2 12 0
91 84 93 102 104 90 87 86 84 87 84 78 57 39 31 47 38 30 23 15 6 5 3 26 19 3 357 348 344 342 341 344 344 337 329 324 327 331 323 344 1 13 16
111 105 94 90 101 109 94 85 89 88 83 73 61 52 38 29 11 7 359 3 4 17 38 40 11 1 2 356 355 349 344 337 323 318 320 323 323 327 320 326 357 20 24
125 123 124 127 126 111 114 118 110 102 99 93 85 67 29 13 9 16 17 15 29 38 49 23 12 7 356 359 1 355 349 334 316 307 311 309 310 317 320 322 343 12 31
128 135 145 152 150 151 145 144 139 141 138 109 82 54 24 15 18 16 14 18 25 40 30 12 8 2 3 1 360 349 335 318 316 308 310 311 311 312 333 332 6 6 24
140 146 158 159 165 165 170 169 174 182 173 145 117 66 21 9 357 359 8 13 18 17 8 7 3 5 2 359 356 336 329 334 338 332 324 337 349 353 350 346 1 7 339